WS Maaseik 1 Meer informatie WS Maaseik 1


WS Maaseik 2 Meer informatie WS Maaseik 2


Regen radar Meer informatie rain snow radar


Bezoek onze andere website:

Vorige versie
weerstation Maaseik


Bezoek ook eens deze sites:

Weerstation Geleen



Het weer levert geen direct gevaar op.    Er zijn geen waarschuwingen afgegeven.

15 daagse weersverwachting Montpellier (FR)

  • Overzicht
  • Per uur
  • 15 dagen
  • Extra
  • Vergelijk
  • Kaarten
  • Dagkaart
  • Meer »
  • Info
  • Statistieken
  • Directe link
    Temp 6h Neerslag Wind  
 08:17     18:40    Daglengte: 10:23 Vandaag
14:00
18°
 
5
20:00
16°
2.9 mm
5
 08:18     18:39    Daglengte: 10:21 Morgen
02:00
16°
2.7 mm
6
08:00
15°
 
4
14:00
17°
13.6 mm
8
20:00
17°
8.4 mm
9
warningclass
 08:19     18:37    Daglengte: 10:18 Zaterdag 30 Okt
02:00
17°
10.2 mm
7
08:00
18°
23.0 mm
10
14:00
18°
42.3 mm
10
20:00
18°
27.6 mm
4
 08:21     18:36    Daglengte: 10:15 Zondag 31 Okt
02:00
18°
35.8 mm
5
07:00
17°
38.4 mm
5
Locatie info
Region: Occitanie
Latitude: 43.6109°N
Longitude: 3.8761°E
56 masl
Postcode: 34000
Temp/Neerslag /Baro Onweer/Dauwpunt
    Temp Baro 1h Neerslag Dauwpunt Wind UV Bewolking  
 08:17     18:40    Daglengte: 10:23 Vandaag
14:00
18°
1019.2 hPa
13%
12.4°
5
Windvlaag: 0.7 m/s
58%
15:00
18°
1018.5 hPa
76%
13.0°
5
Windvlaag: 2.8 m/s
43%
16:00
18°
1018.1 hPa 0.3 mm
81%
15.1°
5
Windvlaag: 7.4 m/s
42%
17:00
17°
1017.8 hPa 0.6 mm
82%
14.3°
5
Windvlaag: 8 m/s
51%
18:00
17°
1017.5 hPa 0.6 mm
81%
13.7°
5
Windvlaag: 6.5 m/s
51%
19:00
16°
1017.3 hPa 0.7 mm
82%
13.0°
5
Windvlaag: 6.3 m/s
58%
20:00
16°
1017.3 hPa 0.7 mm
82%
12.2°
5
Windvlaag: 6.5 m/s
58%
21:00
16°
1017.1 hPa 0.9 mm
82%
11.3°
5
Windvlaag: 6 m/s
72%
22:00
16°
1016.9 hPa 0.9 mm
82%
11.6°
6
Windvlaag: 7.4 m/s
55%
23:00
16°
1016.6 hPa 0.8 mm
82%
12.2°
6
Windvlaag: 7.5 m/s
48%
 08:18     18:39    Daglengte: 10:21 Morgen
00:00
16°
1016.2 hPa
82%
13.2°
6
Windvlaag: 7.9 m/s
72%
01:00
16°
1015.8 hPa
82%
14.1°
6
Windvlaag: 7.3 m/s
86%
02:00
16°
1015.5 hPa
82%
14.0°
6
Windvlaag: 7.5 m/s
79%
03:00
16°
1015.0 hPa
82%
14.0°
5
Windvlaag: 7.1 m/s
38%
04:00
16°
1014.6 hPa
82%
14.0°
5
Windvlaag: 6.3 m/s
28%
05:00
15°
1014.1 hPa
82%
13.9°
5
Windvlaag: 5.4 m/s
24%
06:00
15°
1013.9 hPa
82%
13.7°
5
Windvlaag: 4.4 m/s
48%
07:00
15°
1013.9 hPa
82%
13.6°
5
Windvlaag: 4.1 m/s
55%
08:00
15°
1013.7 hPa
82%
13.5°
4
Windvlaag: 2.5 m/s
59%
09:00
15°
1014.0 hPa 2.1 mm
82%
13.3°
5
Windvlaag: 2.7 m/s
84%
10:00
15°
1014.1 hPa 2.3 mm
82%
13.6°
5
Windvlaag: 2.7 m/s
86%
11:00
16°
1014.0 hPa 2.4 mm
82%
14.1°
5
Windvlaag: 6.2 m/s
86%
12:00
17°
1013.6 hPa 2.1 mm
82%
14.0°
6
Windvlaag: 6.7 m/s
86%
13:00
17°
1012.9 hPa 2.1 mm
82%
14.0°
7
Windvlaag: 8.1 m/s
85%
14:00
17°
1012.4 hPa 2.5 mm
82%
14.0°
8
Windvlaag: 8.4 m/s
86%
15:00
17°
1011.8 hPa 2.6 mm
82%
14.1°
8
Windvlaag: 8.8 m/s
80%
16:00
17°
1011.3 hPa
82%
14.3°
8
Windvlaag: 8.9 m/s
55% warningclass
17:00
17°
1011.2 hPa 2.7 mm
82%
14.6°
8
Windvlaag: 9.2 m/s
65% warningclass
18:00
17°
1011.1 hPa 3.2 mm
82%
14.6°
8
Windvlaag: 8.3 m/s
79% warningclass
19:00
17°
1011.4 hPa
82%
14.7°
8
Windvlaag: 7.8 m/s
86% warningclass
20:00
17°
1011.9 hPa
82%
15.0°
9
Windvlaag: 8.4 m/s
82% warningclass
21:00
17°
1012.0 hPa
82%
15.2°
9
Windvlaag: 8.9 m/s
70% warningclass
22:00
17°
1012.1 hPa
82%
15.4°
9
Windvlaag: 10.2 m/s
79% warningclass
23:00
17°
1012.0 hPa
82%
15.6°
8
Windvlaag: 10 m/s
81% warningclass
 08:19     18:37    Daglengte: 10:18 Zaterdag 30 Okt
00:00
17°
1012.0 hPa 3.2 mm
82%
15.6°
8
Windvlaag: 9 m/s
86% warningclass
01:00
17°
1011.5 hPa 3.4 mm
82%
15.9°
8
Windvlaag: 9.7 m/s
76% warningclass
02:00
17°
1011.0 hPa 3.6 mm
82%
15.8°
7
Windvlaag: 9.6 m/s
86%
03:00
17°
1010.7 hPa 3.6 mm
81%
15.8°
7
Windvlaag: 10.8 m/s
86%
04:00
17°
1010.2 hPa 3.1 mm
76%
15.9°
8
Windvlaag: 11.8 m/s
86% warningclass
05:00
18°
1009.5 hPa 3.1 mm
72%
16.0°
8
Windvlaag: 12.4 m/s
77%
06:00
18°
1009.0 hPa 3.5 mm
65%
16.4°
9
Windvlaag: 13.4 m/s
67%
07:00
18°
1008.8 hPa 4.2 mm
66%
16.3°
9
Windvlaag: 14.3 m/s
86%
08:00
18°
1008.4 hPa 5.6 mm
69%
16.4°
10
Windvlaag: 15.1 m/s
86%
09:00
18°
1008.3 hPa 6.3 mm
70%
15.6°
11
Windvlaag: 15.8 m/s
86%
10:00
18°
1008.4 hPa 6.0 mm
67%
15.8°
11
Windvlaag: 16.1 m/s
86%
11:00
18°
1008.9 hPa 10.0 mm
79%
16.7°
11
Windvlaag: 15.4 m/s
100%
12:00
18°
1008.8 hPa 10.5 mm
24%
16.6°
11
Windvlaag: 18.2 m/s
97% warningclass
13:00
18°
1008.9 hPa 9.5 mm
28%
15.8°
10
Windvlaag: 17.4 m/s
100% warningclass
14:00
18°
1008.4 hPa
36%
16.2°
10
Windvlaag: 16.8 m/s
100%
15:00
18°
1008.2 hPa
87%
16.8°
8
Windvlaag: 15.2 m/s
100%
16:00
18°
1008.0 hPa
38%
16.9°
8
Windvlaag: 12.5 m/s
97%
17:00
19°
1008.2 hPa 9.4 mm
90%
15.8°
7
Windvlaag: 11 m/s
100%
18:00
18°
1008.5 hPa 6.2 mm
98%
16.2°
6
Windvlaag: 9.5 m/s
96%
19:00
18°
1008.9 hPa 6.2 mm
96%
16.5°
5
Windvlaag: 8.7 m/s
95%
20:00
18°
1009.4 hPa 5.8 mm
91%
16.8°
4
Windvlaag: 7.3 m/s
98%
21:00
18°
1009.9 hPa 5.8 mm
96%
17.2°
4
Windvlaag: 7.4 m/s
100%
22:00
18°
1010.0 hPa 5.9 mm
96%
17.3°
4
Windvlaag: 5.9 m/s
100%
23:00
18°
1010.0 hPa 5.9 mm
98%
17.6°
4
Windvlaag: 4.8 m/s
100%
 08:21     18:36    Daglengte: 10:15 Zondag 31 Okt
00:00
18°
1009.9 hPa 5.9 mm
98%
17.8°
4
Windvlaag: 5 m/s
100%
01:00
18°
1009.8 hPa 6.1 mm
96%
17.8°
5
Windvlaag: 5 m/s
100%
02:00
18°
1009.3 hPa 6.2 mm
94%
18.0°
5
Windvlaag: 4.5 m/s
100%
02:00
18°
1009.6 hPa 5.9 mm
97%
17.9°
4
Windvlaag: 2.9 m/s
100%
03:00
18°
1008.8 hPa 6.2 mm
100%
17.7°
3
Windvlaag: 1.1 m/s
100%
04:00
18°
1008.2 hPa 6.6 mm
100%
17.8°
3
Windvlaag: 1 m/s
100%
05:00
18°
1008.0 hPa 6.4 mm
100%
17.8°
3
Windvlaag: 1.8 m/s
98%
06:00
18°
1008.0 hPa 6.6 mm
100%
17.7°
4
Windvlaag: 1.7 m/s
100%
07:00
17°
1007.9 hPa 6.6 mm
100%
17.1°
5
Windvlaag: 2.2 m/s
100%
08:00
16°
1006.7 hPa 9.7 mm
100%
15.7°
4
Windvlaag: 6 m/s
100%
09:00
16°
1006.3 hPa
83%
15.5°
4
Windvlaag: 6.2 m/s
99%
10:00
17°
1006.4 hPa
38%
14.8°
4
Windvlaag: 6.5 m/s
97%
11:00
17°
1006.6 hPa
46%
13.8°
4
Windvlaag: 4.1 m/s
98%
12:00
18°
1007.0 hPa 9.5 mm
100%
13.2°
3
Windvlaag: 3.9 m/s
93%
Temp/Neerslag /Baro Onweer/Dauwpunt
    Temp Baro Neerslag Dauwpunt Wind Bewolking  
 08:17     18:40    Daglengte: 10:23 Vandaag
14:00
18°
1019.2 hPa   12.4°
5
58%
17:00
17°
1017.8 hPa 0.9 mm 14.3°
5
51%
20:00
16°
1017.3 hPa 2.1 mm 12.2°
5
58%
23:00
16°
1016.6 hPa 2.7 mm 12.2°
6
48%
 08:18     18:39    Daglengte: 10:21 Morgen
02:00
16°
1015.5 hPa   14.0°
6
79%
05:00
15°
1014.1 hPa   13.9°
5
24%
08:00
15°
1013.7 hPa   13.5°
4
59%
11:00
16°
1014.0 hPa 6.9 mm 14.1°
5
86%
14:00
17°
1012.4 hPa 6.8 mm 14.0°
8
86%
17:00
17°
1011.2 hPa 5.3 mm 14.6°
8
65% warningclass
20:00
17°
1011.9 hPa 3.2 mm 15.0°
9
82% warningclass
23:00
17°
1012.0 hPa   15.6°
8
81% warningclass
 08:19     18:37    Daglengte: 10:18 Zaterdag 30 Okt
02:00
17°
1011.0 hPa 10.2 mm 15.8°
7
86%
05:00
18°
1009.5 hPa 9.8 mm 16.0°
8
77%
08:00
18°
1008.4 hPa 13.2 mm 16.4°
10
86%
11:00
18°
1008.9 hPa 22.4 mm 16.7°
11
100%
14:00
18°
1008.4 hPa 20.0 mm 16.2°
10
100%
17:00
19°
1008.2 hPa 9.4 mm 15.8°
7
100%
20:00
18°
1009.4 hPa 18.2 mm 16.8°
4
98%
23:00
18°
1010.0 hPa 17.6 mm 17.6°
4
100%
 08:21     18:36    Daglengte: 10:15 Zondag 31 Okt
02:00
18°
1009.3 hPa 18.2 mm 18.0°
5
100%
04:00
18°
1008.2 hPa 18.8 mm 17.8°
3
100%
07:00
17°
1007.9 hPa 19.6 mm 17.1°
5
100%
10:00
17°
1006.4 hPa 9.7 mm 14.8°
4
97%
13:00
18°
1006.2 hPa 28.5 mm 12.2°
3
80%
16:00
16°
1009.4 hPa 40.7 mm 13.5°
4
1%
19:00
16°
1010.1 hPa 40.7 mm 13.4°
1
1%
22:00
16°
1010.4 hPa 40.8 mm 13.6°
0
1%
 08:22     18:35    Daglengte: 10:13 Maandag 01 Nov
01:00
16°
1009.2 hPa 40.8 mm 13.2°
1
1%
04:00
16°
1007.7 hPa 41.0 mm 13.8°
1
1%
07:00
16°
1006.8 hPa 42.0 mm 14.4°
3
1%
10:00
15°
1009.4 hPa 49.8 mm 9.9°
5
1%
13:00
15°
1010.5 hPa 50.5 mm 10.1°
3
1%
16:00
17°
1010.8 hPa 50.5 mm 8.3°
6
1%
19:00
14°
1012.7 hPa 50.5 mm 6.6°
7
1%
22:00
12°
1014.6 hPa 50.5 mm 6.1°
7
0%
 08:23     18:33    Daglengte: 10:10 Dinsdag 02 Nov
01:00
12°
1014.1 hPa 50.5 mm 5.1°
6
0%
04:00
11°
1013.2 hPa 50.5 mm 4.8°
5
0%
07:00
10°
1012.8 hPa 50.5 mm 4.1°
3
0%
10:00
13°
1013.0 hPa 50.5 mm 6.1°
2
0%
13:00
16°
1011.1 hPa 50.5 mm 6.9°
2
0%
16:00
16°
1009.5 hPa 50.5 mm 8.6°
4
0%
19:00
13°
1009.8 hPa 50.5 mm 6.7°
3
0%
22:00
12°
1009.4 hPa 50.5 mm 6.9°
2
0%
 08:25     18:32    Daglengte: 10:07 Woensdag 03 Nov
01:00
12°
1007.6 hPa 50.5 mm 5.9°
1
0%
04:00
11°
1006.9 hPa 50.5 mm 6.9°
2
1%
07:00
12°
1006.4 hPa 50.7 mm 6.0°
3
1%
10:00
13°
1007.7 hPa 50.7 mm 6.5°
7
1%
13:00
15°
1007.4 hPa 50.7 mm 6.4°
7
1%
16:00
15°
1007.1 hPa 50.7 mm 5.4°
6
0%
19:00
12°
1009.1 hPa 50.7 mm 3.9°
6
0%
22:00
11°
1010.5 hPa 50.7 mm 4.1°
6
0%
 08:26     18:31    Daglengte: 10:05 Donderdag 04 Nov
01:00
10°
Voelt als: 6.8°
1011.2 hPa 50.7 mm 4.8°
7
0%
04:00
10°
Voelt als: 6.8°
1011.9 hPa 50.7 mm 4.0°
7
0%
07:00
10°
Voelt als: 6.7°
1012.9 hPa 50.7 mm 3.0°
6
0%
10:00
12°
1015.1 hPa   4.8°
7
0%
13:00
14°
1015.4 hPa 101.5 mm 2.5°
7
0%
19:00
10°
1018.7 hPa 101.5 mm 1.3°
7
0%
 08:27     18:29    Daglengte: 10:02 Vrijdag 05 Nov
01:00
Voelt als: 5.8°
1021.8 hPa 101.5 mm 0.2°
5
0%
07:00
Voelt als: 4.8°
1023.8 hPa 101.5 mm -0.2°
5
0%
13:00
14°
1025.1 hPa 101.5 mm 1.7°
3
0%
19:00
11°
1026.6 hPa 101.5 mm 2.2°
3
0%
 08:29     18:28    Daglengte: 9:59 Zaterdag 06 Nov
01:00
Voelt als: 7.1°
1027.5 hPa 101.5 mm 1.4°
2
0%
07:00
Voelt als: 5.8°
1027.6 hPa 101.5 mm -0.0°
2
0%
13:00
14°
1028.1 hPa 101.5 mm 3.8°
1
0%
19:00
11°
1028.4 hPa 101.5 mm 3.3°
2
0%
 08:30     18:27    Daglengte: 9:57 Zondag 07 Nov
01:00
Voelt als: 8.6°
1028.7 hPa 101.5 mm 3.4°
2
0%
07:00
Voelt als: 6.0°
1020.7 hPa 0.1 mm 2.4°
3
33%
13:00
13°
1019.5 hPa 0.1 mm 4.5°
1
41%
19:00
11°
1019.5 hPa 0.1 mm 3.6°
1
55%
 08:31     18:26    Daglengte: 9:55 Maandag 08 Nov
01:00
Voelt als: 8.3°
1019.8 hPa 0.3 mm 3.4°
2
58%
07:00
Voelt als: 7.2°
1019.3 hPa 0.5 mm 3.3°
2
54%
13:00
13°
1018.7 hPa 0.4 mm 4.6°
2
45%
19:00
11°
1019.3 hPa 0.6 mm 3.5°
2
46%
 08:33     18:25    Daglengte: 9:52 Dinsdag 09 Nov
01:00
Voelt als: 7.2°
1020.3 hPa 0.3 mm 2.9°
3
51%
07:00
Voelt als: 5.8°
1020.2 hPa 0.1 mm 2.4°
4
48%
13:00
13°
1020.2 hPa 0.1 mm 4.5°
3
54%
19:00
10°
1021.1 hPa   3.6°
3
54%
 08:34     18:24    Daglengte: 9:50 Woensdag 10 Nov
01:00
Voelt als: 7.0°
1022.1 hPa   3.3°
4
51%
07:00
Voelt als: 6.2°
1021.7 hPa   2.7°
4
42%
13:00
14°
1020.7 hPa 0.1 mm 4.9°
3
43%
19:00
11°
1020.5 hPa 0.1 mm 4.2°
3
46%
 08:35     18:23    Daglengte: 9:48 Donderdag 11 Nov
01:00
Voelt als: 7.8°
1020.9 hPa 0.4 mm 3.5°
3
46%
07:00
Voelt als: 6.8°
1020.4 hPa 0.6 mm 2.8°
3
44%
13:00
13°
1019.3 hPa 0.7 mm 4.8°
2
52%
19:00
11°
1019.2 hPa 0.6 mm 4.5°
2
45%
 08:36     18:22    Daglengte: 9:46 Vrijdag 12 Nov
01:00
10°
Voelt als: 8.6°
1019.3 hPa 0.8 mm 4.1°
2
39%
07:00
Voelt als: 7.0°
1018.5 hPa 1.0 mm 3.4°
3
43%
  CAPE Lifted Index Hail Supercell Tornado SRH 3km CL BTM PRES CL TOP PRES Swiss DWD icon SMHI TS
 08:17     18:40    Daglengte: 10:23 Vandaag
14:00 477 J/kg -1.2 K 0 % 0 % 0 % 0 m²/s² 0 0 3.75 3
15:00 376 J/kg -0.7 K 0 % 0 % 0 % 0 m²/s² 0 0 3.44 3
16:00 428 J/kg -1.4 K 0 % 0 % 0 % 0 m²/s² 0 0 0.73 80
17:00 401 J/kg -1.4 K 0 % 0 % 0 % 0 m²/s² 0 0 -0.62 80
18:00 432 J/kg -1.5 K 0 % 0 % 0 % 0 m²/s² 0 0 0.93 80
19:00 361 J/kg -1.1 K 0 % 0 % 0 % 0 m²/s² 0 0 2.56 80
20:00 297 J/kg -0.6 K 0 % 0 % 0 % 0 m²/s² 0 0 3.9 80
21:00 281 J/kg -0.6 K 0 % 0 % 0 % 0 m²/s² 0 0 4.62 80
22:00 404 J/kg -0.9 K 0 % 0 % 0 % 0 m²/s² 0 0 4.08 80
23:00 541 J/kg -1.4 K 0 % 0 % 0 % 0 m²/s² 0 0 3.34 80
 08:18     18:39    Daglengte: 10:21 Morgen
00:00 517 J/kg -1.6 K 0 % 0 % 0 % 0 m²/s² 0 0 3.02 80
01:00 674 J/kg -2.2 K 0 % 0 % 0 % 0 m²/s² 0 0 2.18 80
02:00 810 J/kg -2.6 K 0 % 0 % 0 % 0 m²/s² 0 0 0.94 80
03:00 1014 J/kg -3.4 K 0 % 0 % 0 % 0 m²/s² 0 0 -0.19 80
04:00 996 J/kg -3.6 K 0 % 0 % 0 % 0 m²/s² 0 0 -0.96 80
05:00 1139 J/kg -3.8 K 0 % 0 % 0 % 0 m²/s² 0 0 -1.73 80
06:00 1081 J/kg -3.6 K 0 % 0 % 0 % 0 m²/s² 0 0 -1.71 80
07:00 917 J/kg -3.5 K 0 % 0 % 0 % 0 m²/s² 0 0 -1.37 80
08:00 843 J/kg -3.1 K 0 % 0 % 0 % 0 m²/s² 0 0 0.17 80
09:00 440 J/kg -1.6 K 0 % 0 % 0 % 0 m²/s² 0 0 2.87 80
10:00 460 J/kg -1.2 K 0 % 0 % 0 % 0 m²/s² 0 0 3.87 80
11:00 408 J/kg -1.0 K 0 % 0 % 0 % 0 m²/s² 0 0 2.75 80
12:00 299 J/kg -0.3 K 0 % 0 % 0 % 0 m²/s² 0 0 2.58 80
13:00 184 J/kg 0.6 K 0 % 0 % 0 % 0 m²/s² 0 0 3.09 80
14:00 196 J/kg 0.6 K 0 % 0 % 0 % 0 m²/s² 0 0 2.88 80
15:00 238 J/kg 0.2 K 0 % 0 % 0 % 0 m²/s² 0 0 2.09 80
16:00 324 J/kg -1.0 K 0 % 0 % 0 % 0 m²/s² 0 0 0.59 95
17:00 371 J/kg -1.0 K 0 % 0 % 0 % 0 m²/s² 0 0 -0.19 95
18:00 425 J/kg -1.5 K 0 % 0 % 0 % 0 m²/s² 0 0 -0.87 95
19:00 389 J/kg -1.5 K 0 % 0 % 0 % 0 m²/s² 0 0 -0.72 95
20:00 397 J/kg -1.6 K 0 % 0 % 0 % 0 m²/s² 0 0 -0.76 95
21:00 400 J/kg -1.6 K 0 % 0 % 0 % 0 m²/s² 0 0 -0.82 95
22:00 372 J/kg -1.7 K 0 % 0 % 0 % 0 m²/s² 0 0 -0.56 95
23:00 418 J/kg -1.9 K 0 % 0 % 0 % 0 m²/s² 0 0 -0.52 95
 08:19     18:37    Daglengte: 10:18 Zaterdag 30 Okt
00:00 476 J/kg -1.8 K 0 % 0 % 0 % 0 m²/s² 0 0 -0.72 95
01:00 547 J/kg -1.9 K 0 % 0 % 0 % 0 m²/s² 0 0 -0.97 95
02:00 606 J/kg -2.2 K 0 % 0 % 0 % 0 m²/s² 0 0 -1.54 80
03:00 638 J/kg -2.1 K 0 % 0 % 0 % 0 m²/s² 0 0 -1.98 80
04:00 631 J/kg -2.1 K 0 % 0 % 0 % 0 m²/s² 0 0 -2.01 80
05:00 567 J/kg -1.8 K 0 % 0 % 0 % 0 m²/s² 0 0 -1.77 80
06:00 587 J/kg -2.0 K 0 % 0 % 0 % 0 m²/s² 0 0 -1.91 3
07:00 466 J/kg -1.5 K 0 % 0 % 0 % 0 m²/s² 0 0 -1.47 3
08:00 415 J/kg -1.4 K 0 % 0 % 0 % 0 m²/s² 0 0 -1.37 3
09:00 240 J/kg 0.5 K 0 % 0 % 0 % 0 m²/s² 0 0 0.59 80
10:00 174 J/kg 0.9 K 0 % 0 % 0 % 0 m²/s² 0 0 1.08 3
11:00 216 J/kg 0.1 K 0 % 0 % 0 % 0 m²/s² 0 0 0.31 3
12:00 191 J/kg -0.1 K 0 % 0 % 0 % 0 m²/s² 0 0 -0.07 3
13:00 101 J/kg 0.6 K 0 % 0 % 0 % 0 m²/s² 0 0 0.69 3
14:00 117 J/kg 0.0 K 0 % 0 % 0 % 0 m²/s² 0 0 0.27 3
15:00 197 J/kg -0.5 K 0 % 0 % 0 % 0 m²/s² 0 0 -0.02 3
16:00 355 J/kg -1.5 K 0 % 0 % 0 % 0 m²/s² 0 0 -0.45 3
17:00 212 J/kg -1.2 K 0 % 0 % 0 % 0 m²/s² 0 0 0 3
18:00 244 J/kg -1.5 K 0 % 0 % 0 % 0 m²/s² 0 0 -1.2 3
19:00 237 J/kg -1.6 K 0 % 0 % 0 % 0 m²/s² 0 0 -1.18 3
20:00 305 J/kg -1.9 K 0 % 0 % 0 % 0 m²/s² 0 0 -1.24 3
21:00 318 J/kg -2.3 K 0 % 0 % 0 % 0 m²/s² 0 0 -1.1 3
22:00 296 J/kg -2.0 K 0 % 0 % 0 % 0 m²/s² 0 0 -1.1 3
23:00 241 J/kg -1.5 K 0 % 0 % 0 % 0 m²/s² 0 0 -0.39 3
 08:21     18:36    Daglengte: 10:15 Zondag 31 Okt
00:00 234 J/kg -1.3 K 0 % 0 % 0 % 0 m²/s² 0 0 -0.1 3
01:00 269 J/kg -1.6 K 0 % 0 % 0 % 0 m²/s² 0 0 -0.4 3
02:00 208 J/kg -0.9 K 0 % 0 % 0 % 0 m²/s² 0 0 0.3 3
02:00 261 J/kg -1.0 K 0 % 0 % 0 % 0 m²/s² 0 0 -0.19 3
03:00 176 J/kg -0.1 K 0 % 0 % 0 % 0 m²/s² 0 0 1.55 61
04:00 211 J/kg 0.2 K 0 % 0 % 0 % 0 m²/s² 0 0 1.73 61
05:00 199 J/kg 0.5 K 0 % 0 % 0 % 0 m²/s² 0 0 1.31 53
06:00 189 J/kg 0.7 K 0 % 0 % 0 % 0 m²/s² 0 0 1.09 80
07:00 131 J/kg 1.3 K 0 % 0 % 0 % 0 m²/s² 0 0 1.42 80
08:00 36 J/kg 1.5 K 0 % 0 % 0 % 0 m²/s² 0 0 1.68 80
09:00 5 J/kg 1.8 K 0 % 0 % 0 % 0 m²/s² 0 0 2.37 3
10:00 7 J/kg 1.5 K 0 % 0 % 0 % 0 m²/s² 0 0 2.73 3
11:00 7 J/kg 1.3 K 0 % 0 % 0 % 0 m²/s² 0 0 3.16 3
12:00 0 J/kg 0.9 K 0 % 0 % 0 % 0 m²/s² 0 0 3.15 61
Temp Baro Wind Neerslag
  EWN Forecast EWN WRFDA DWD ICON FMI HIRLAM MET Norway GFS
 08:17     18:40    Daglengte: 10:23 Vandaag
14:00 18.4° 1019.2 hPa 4.6 m/s 0.0 mm 18.6° 1017.8 hPa 7.3 m/s 0.1 mm 18.5° 1019.1 hPa 4.7 m/s -2.0 mm 18.5° 1019.3 hPa 3.9 m/s 0.0 mm 18.3° 1018.9 hPa 6.3 m/s
17:00 17.4° 1017.8 hPa 5.1 m/s 0.9 mm 17.0° 1016.7 hPa 7.2 m/s 2.0 mm 16.6° 1017.4 hPa 3.5 m/s 0.8 mm 17.6° 1018.0 hPa 5.6 m/s 0.0 mm 17.6° 1017.5 hPa 6.1 m/s
20:00 16.2° 1017.3 hPa 5.4 m/s 2.1 mm 16.8° 1016.4 hPa 7.2 m/s 6.1 mm 15.4° 1017.1 hPa 2.1 m/s 1.3 mm 17.4° 1017.4 hPa 7.8 m/s 0.0 mm 15.7° 1017.3 hPa 5.6 m/s
23:00 16.4° 1016.6 hPa 6.2 m/s 2.7 mm 17.0° 1016.0 hPa 6.9 m/s 6.7 mm 15.2° 1016.6 hPa 3.4 m/s 1.3 mm 17.6° 1016.9 hPa 6.5 m/s 0.0 mm 15.6° 1016.9 hPa 5.3 m/s
 08:18     18:39    Daglengte: 10:21 Morgen
02:00 15.9° 1015.5 hPa 5.5 m/s 0.0 mm 16.7° 1014.9 hPa 7.2 m/s 8.4 mm 15.4° 1015.1 hPa 4.5 m/s 1.7 mm 16.8° 1015.6 hPa 5.5 m/s 0.0 mm 15.1° 1016.0 hPa 4.8 m/s
05:00 15.4° 1014.1 hPa 4.9 m/s 0.0 mm 17.0° 1013.5 hPa 7.1 m/s 13.9 mm 15.2° 1013.8 hPa 4.9 m/s 3.5 mm 16.5° 1014.2 hPa 4.9 m/s 0.0 mm 14.4° 1015.2 hPa 4.4 m/s
08:00 15.2° 1013.7 hPa 4.5 m/s 0.0 mm 16.9° 1012.7 hPa 6.9 m/s 22.8 mm 15.0° 1013.6 hPa 4.4 m/s 3.5 mm 16.3° 1013.6 hPa 5.0 m/s 0.0 mm 14.1° 1014.9 hPa 3.7 m/s
11:00 16.1° 1014.0 hPa 5.1 m/s 6.9 mm 17.1° 1014.1 hPa 9.0 m/s 25.6 mm 16.1° 1013.8 hPa 4.5 m/s 2.6 mm 16.7° 1013.8 hPa 7.0 m/s 0.0 mm 16.0° 1015.0 hPa 5.7 m/s
14:00 17.0° 1012.4 hPa 7.5 m/s 6.8 mm 18.1° 1013.0 hPa 8.0 m/s 26.4 mm 16.7° 1011.8 hPa 5.7 m/s 1.9 mm 17.2° 1012.2 hPa 9.2 m/s 0.0 mm 17.6° 1013.5 hPa 8.1 m/s
17:00 17.2° 1011.2 hPa 7.7 m/s 5.3 mm 18.4° 1011.8 hPa 8.8 m/s 27.9 mm 16.7° 1010.7 hPa 6.0 m/s 3.8 mm 17.4° 1010.5 hPa 9.9 m/s 0.0 mm 16.9° 1012.0 hPa 8.9 m/s
20:00 17.1° 1011.9 hPa 8.7 m/s 3.2 mm 17.7° 1011.8 hPa 9.6 m/s 30.5 mm 16.9° 1011.7 hPa 5.6 m/s 8.5 mm 17.7° 1010.6 hPa 9.6 m/s 0.0 mm 16.6° 1012.8 hPa 8.5 m/s
23:00 17.0° 1012.0 hPa 8.3 m/s 0.0 mm 17.4° 1011.6 hPa 10.6 m/s 35.1 mm 16.7° 1011.8 hPa 5.4 m/s 6.8 mm 17.4° 1010.7 hPa 8.6 m/s 0.0 mm 16.7° 1012.9 hPa 8.7 m/s
 08:19     18:37    Daglengte: 10:18 Zaterdag 30 Okt
02:00 17.1° 1011.0 hPa 7.1 m/s 10.2 mm 18.1° 1011.1 hPa 8.8 m/s 37.1 mm 16.9° 1010.8 hPa 5.7 m/s 5.3 mm 17.1° 1009.5 hPa 6.7 m/s 0.0 mm 16.7° 1011.8 hPa 10.1 m/s
05:00 17.5° 1009.5 hPa 8.5 m/s 9.8 mm 18.3° 1009.8 hPa 8.0 m/s 37.8 mm 17.6° 1009.4 hPa 5.1 m/s 2.8 mm 17.4° 1007.3 hPa 8.6 m/s 0.0 mm 17.1° 1009.4 hPa 10.2 m/s
08:00 17.8° 1008.4 hPa 9.7 m/s 13.2 mm 17.6° 1008.3 hPa 12.2 m/s 49.7 mm 18.1° 1008.6 hPa 6.9 m/s 0.8 mm 17.8° 1005.5 hPa 9.5 m/s 0.0 mm 17.0° 1008.0 hPa 10.6 m/s
11:00 17.7° 1008.9 hPa 10.9 m/s 22.4 mm 17.6° 1008.0 hPa 12.8 m/s 76.3 mm 18.4° 1008.6 hPa 7.1 m/s 0.6 mm 17.3° 1007.9 hPa 11.5 m/s
14:00 18.3° 1008.4 hPa 9.7 m/s 20.0 mm 18.3° 1007.7 hPa 9.6 m/s 82.3 mm 18.6° 1008.0 hPa 8.4 m/s 0.0 mm 18.2° 1007.5 hPa 7.2 m/s
17:00 18.6° 1008.2 hPa 6.5 m/s 9.4 mm 19.3° 1007.0 hPa 6.3 m/s 83.2 mm 18.6° 1008.0 hPa 5.3 m/s 0.1 mm 18.1° 1008.1 hPa 1.8 m/s
20:00 18.0° 1009.4 hPa 4.2 m/s 18.2 mm 18.5° 1008.5 hPa 3.4 m/s 83.5 mm 17.9° 1009.2 hPa 3.4 m/s 0.5 mm 16.9° 1010.7 hPa 4.1 m/s
23:00 18.0° 1010.0 hPa 4.0 m/s 17.6 mm 18.1° 1009.5 hPa 2.3 m/s 83.7 mm 18.0° 1009.6 hPa 3.4 m/s 0.4 mm 15.9° 1012.0 hPa 6.1 m/s
 08:21     18:36    Daglengte: 10:15 Zondag 31 Okt
02:00 18.0° 1009.3 hPa 4.7 m/s 18.2 mm 18.0° 1009.0 hPa 3.2 m/s 83.8 mm 18.5° 1008.6 hPa 4.5 m/s 0.6 mm 16.0° 1011.1 hPa 7.6 m/s
04:00 17.8° 1008.2 hPa 3.1 m/s 18.8 mm 18.0° 1007.7 hPa 2.3 m/s 84.3 mm 18.2° 1007.6 hPa 2.4 m/s 0.7 mm 16.3° 1010.2 hPa 8.2 m/s
07:00 17.3° 1007.9 hPa 5.2 m/s 19.6 mm 17.8° 1007.6 hPa 2.0 m/s 84.8 mm 17.4° 1006.5 hPa 4.8 m/s 1.1 mm 16.5° 1009.4 hPa 7.8 m/s
10:00 17.0° 1006.4 hPa 4.1 m/s 9.7 mm 18.8° 1007.8 hPa 3.0 m/s 84.8 mm 16.6° 1006.0 hPa 4.3 m/s 0.4 mm 16.1° 1009.3 hPa 6.7 m/s
13:00 18.3° 1006.2 hPa 3.3 m/s 28.5 mm 21.7° 1006.1 hPa 1.2 m/s 84.8 mm 17.5° 1006.2 hPa 3.8 m/s 0.3 mm 15.5° 1009.1 hPa 5.7 m/s
16:00 16.0° 1009.4 hPa 4.0 m/s 40.7 mm 16.0° 1009.4 hPa 4.0 m/s 40.7 mm
19:00 15.8° 1010.1 hPa 1.3 m/s 40.7 mm 15.8° 1010.1 hPa 1.3 m/s 40.7 mm
22:00 15.6° 1010.4 hPa 0.3 m/s 40.8 mm 15.6° 1010.4 hPa 0.3 m/s 40.8 mm
 08:22     18:35    Daglengte: 10:13 Maandag 01 Nov
01:00 15.7° 1009.2 hPa 0.7 m/s 40.8 mm 15.7° 1009.2 hPa 0.7 m/s 40.8 mm
04:00 15.9° 1007.7 hPa 1.1 m/s 41.0 mm 15.9° 1007.7 hPa 1.1 m/s 41.0 mm
07:00 16.2° 1006.8 hPa 2.6 m/s 42.0 mm 16.2° 1006.8 hPa 2.6 m/s 42.0 mm
10:00 14.6° 1009.4 hPa 5.0 m/s 49.8 mm 14.6° 1009.4 hPa 5.0 m/s 49.8 mm
13:00 15.1° 1010.5 hPa 3.4 m/s 50.5 mm 15.1° 1010.6 hPa 3.4 m/s 50.5 mm
16:00 16.8° 1010.8 hPa 6.3 m/s 50.5 mm 16.8° 1010.8 hPa 6.3 m/s 50.5 mm
19:00 14.0° 1012.7 hPa 7.1 m/s 50.5 mm 14.0° 1012.7 hPa 7.1 m/s 50.5 mm
22:00 12.5° 1014.6 hPa 7.2 m/s 50.5 mm 12.5° 1014.6 hPa 7.2 m/s 50.5 mm
 08:23     18:33    Daglengte: 10:10 Dinsdag 02 Nov
01:00 11.9° 1014.1 hPa 6.4 m/s 50.5 mm 11.9° 1014.1 hPa 6.4 m/s 50.5 mm
04:00 11.3° 1013.2 hPa 5.5 m/s 50.5 mm 11.3° 1013.2 hPa 5.5 m/s 50.5 mm
07:00 10.1° 1012.8 hPa 2.8 m/s 50.5 mm 10.1° 1012.8 hPa 2.8 m/s 50.5 mm
10:00 12.9° 1013.0 hPa 1.6 m/s 50.5 mm 12.9° 1013.0 hPa 1.6 m/s 50.5 mm
13:00 16.1° 1011.1 hPa 1.9 m/s 50.5 mm 16.1° 1011.1 hPa 1.9 m/s 50.5 mm
16:00 15.8° 1009.5 hPa 3.7 m/s 50.5 mm 15.8° 1009.5 hPa 3.7 m/s 50.5 mm
19:00 13.1° 1009.8 hPa 3.2 m/s 50.5 mm 13.1° 1009.8 hPa 3.2 m/s 50.5 mm
22:00 12.2° 1009.4 hPa 1.7 m/s 50.5 mm 12.2° 1009.4 hPa 1.7 m/s 50.5 mm
 08:25     18:32    Daglengte: 10:07 Woensdag 03 Nov
01:00 11.7° 1007.6 hPa 0.9 m/s 50.5 mm 11.7° 1007.6 hPa 0.9 m/s 50.5 mm
04:00 10.8° 1006.9 hPa 1.8 m/s 50.5 mm 10.8° 1006.9 hPa 1.8 m/s 50.5 mm
07:00 11.6° 1006.4 hPa 3.3 m/s 50.7 mm 11.6° 1006.4 hPa 3.3 m/s 50.7 mm
10:00 12.6° 1007.7 hPa 7.5 m/s 50.7 mm 12.6° 1007.7 hPa 7.5 m/s 50.7 mm
13:00 14.5° 1007.4 hPa 7.3 m/s 50.7 mm 14.5° 1007.4 hPa 7.3 m/s 50.7 mm
16:00 14.6° 1007.1 hPa 6.3 m/s 50.7 mm 14.6° 1007.1 hPa 6.3 m/s 50.7 mm
19:00 11.9° 1009.1 hPa 6.4 m/s 50.7 mm 11.9° 1009.1 hPa 6.4 m/s 50.7 mm
22:00 11.0° 1010.5 hPa 6.1 m/s 50.7 mm 11.0° 1010.5 hPa 6.1 m/s 50.7 mm
 08:26     18:31    Daglengte: 10:05 Donderdag 04 Nov
01:00 10.0° 1011.2 hPa 7.3 m/s 50.7 mm 10.0° 1011.2 hPa 7.3 m/s 50.7 mm
04:00 10.0° 1011.9 hPa 7.2 m/s 50.7 mm 10.0° 1011.9 hPa 7.2 m/s 50.7 mm
07:00 9.7° 1012.9 hPa 6.5 m/s 50.7 mm 9.7° 1012.9 hPa 6.5 m/s 50.7 mm
10:00 12.0° 1015.1 hPa 6.6 m/s 50.7 mm 12.0° 1015.1 hPa 6.6 m/s 50.7 mm
13:00 14.4° 1015.4 hPa 6.6 m/s 50.7 mm 14.4° 1015.4 hPa 6.6 m/s 50.7 mm
19:00 10.4° 1018.7 hPa 6.6 m/s 50.7 mm 10.4° 1018.7 hPa 6.6 m/s 50.7 mm
 08:27     18:29    Daglengte: 10:02 Vrijdag 05 Nov
01:00 8.7° 1021.8 hPa 5.5 m/s 50.7 mm 8.7° 1021.8 hPa 5.5 m/s 50.7 mm
07:00 7.7° 1023.8 hPa 4.9 m/s 50.7 mm 7.7° 1023.8 hPa 4.9 m/s 50.7 mm
13:00 13.8° 1025.1 hPa 3.1 m/s 50.7 mm 13.8° 1025.1 hPa 3.1 m/s 50.7 mm
19:00 10.6° 1026.6 hPa 2.9 m/s 50.7 mm 10.6° 1026.6 hPa 2.9 m/s 50.7 mm
 08:29     18:28    Daglengte: 9:59 Zaterdag 06 Nov
01:00 8.4° 1027.5 hPa 2.3 m/s 50.7 mm 8.4° 1027.5 hPa 2.3 m/s 50.7 mm
07:00 7.4° 1027.6 hPa 2.5 m/s 50.7 mm 7.4° 1027.6 hPa 2.5 m/s 50.7 mm
13:00 13.8° 1028.1 hPa 0.8 m/s 50.7 mm 13.8° 1028.1 hPa 0.8 m/s 50.7 mm
19:00 11.2° 1028.4 hPa 1.7 m/s 50.7 mm 11.2° 1028.4 hPa 1.7 m/s 50.7 mm
 08:30     18:27    Daglengte: 9:57 Zondag 07 Nov
01:00 9.4° 1028.7 hPa 1.9 m/s 50.7 mm 9.4° 1028.7 hPa 1.9 m/s 50.7 mm
07:00 7.9° 1020.7 hPa 3.0 m/s 0.1 mm
13:00 12.7° 1019.5 hPa 1.4 m/s 0.1 mm
19:00 10.8° 1019.5 hPa 1.0 m/s 0.1 mm
 08:31     18:26    Daglengte: 9:55 Maandag 08 Nov
01:00 9.4° 1019.8 hPa 2.2 m/s 0.3 mm
07:00 8.6° 1019.3 hPa 2.4 m/s 0.5 mm
13:00 13.2° 1018.7 hPa 2.2 m/s 0.4 mm
19:00 10.9° 1019.3 hPa 2.5 m/s 0.6 mm
 08:33     18:25    Daglengte: 9:52 Dinsdag 09 Nov
01:00 9.1° 1020.3 hPa 3.4 m/s 0.3 mm
07:00 8.1° 1020.2 hPa 3.7 m/s 0.1 mm
13:00 12.7° 1020.2 hPa 3.0 m/s 0.1 mm
19:00 10.5° 1021.1 hPa 3.5 m/s 0.0 mm
 08:34     18:24    Daglengte: 9:50 Woensdag 10 Nov
01:00 9.0° 1022.1 hPa 3.6 m/s 0.0 mm
07:00 8.4° 1021.7 hPa 3.7 m/s 0.0 mm
13:00 13.7° 1020.7 hPa 3.0 m/s 0.1 mm
19:00 11.2° 1020.5 hPa 2.7 m/s 0.1 mm
 08:35     18:23    Daglengte: 9:48 Donderdag 11 Nov
01:00 9.5° 1020.9 hPa 3.2 m/s 0.4 mm
07:00 8.6° 1020.4 hPa 2.9 m/s 0.6 mm
13:00 13.1° 1019.3 hPa 2.1 m/s 0.7 mm
19:00 11.0° 1019.2 hPa 1.9 m/s 0.6 mm
 08:36     18:22    Daglengte: 9:46 Vrijdag 12 Nov
01:00 9.7° 1019.3 hPa 2.3 m/s 0.8 mm
07:00 8.7° 1018.5 hPa 2.9 m/s 1.0 mm
FMI Hirlam - 7.5 km EWN WRFDA - 12 km DWD ICON - 7 km GFS - 25 km Basiskaart






























































Updatetijd (Europe/Brussels) Resolutie Lengte Stap
FMI Hirlam 07:00, 13:00, 19:00, 01:00 7.5 km 49h 1h
EWN WRFDA 09:30, 15:30, 21:30, 03:30 12 km 73h 1h
DWD ICON 11:45, 17:45, 23:45, 05:45 7 km 75h 1h
GFS 08:30, 14:30, 20:30, 02:30 25 km 237h 3h
30+ mm
25-30 mm
20-25 mm
15-20 mm
10-15 mm
6-10 mm
4-6 mm
2-4 mm
1-2 mm
0.5-1 mm
0.2-0.5 mm
0.1-0.2 mm
30+ mm
25-30 mm
20-25 mm
15-20 mm
10-15 mm
6-10 mm
4-6 mm
2-4 mm
1-2 mm
0.5-1 mm
0.2-0.5 mm
0.1-0.2 mm
Sneeuwval
Natte sneeuw
Hagel
Vorst
30+ mm
25-30 mm
20-25 mm
15-20 mm
10-15 mm
6-10 mm
4-6 mm
2-4 mm
1-2 mm
0.5-1 mm
0.2-0.5 mm
0.1-0.2 mm
Sneeuwval
Natte sneeuw
Hagel
Vorst
Onweer
50 mm
40 mm
30 mm
26 mm
22 mm
18 mm
14 mm
10 mm
9 mm
8 mm
7 mm
6 mm
5 mm
4.5 mm
4 mm
3.5 mm
3 mm
2.5 mm
2 mm
1.5 mm
1 mm
0.8 mm
0.6 mm
0.4 mm
0.2 mm
0.05 mm
35°
30°
25°
20°
15°
10°
-5°
-10°
-15°
-20°
-25°
-30°
-35°
33> m/s
29 m/s
25 m/s
21 m/s
17 m/s
14 m/s
11 m/s
8 m/s
5 m/s
3 m/s
0 m/s
2600 J/kg
2400 J/kg
2200 J/kg
2000 J/kg
1800 J/kg
1600 J/kg
1400 J/kg
1200 J/kg
1000 J/kg
800 J/kg
600 J/kg
400 J/kg
200 J/kg
70 dBZ
65 dBZ
60 dBZ
55 dBZ
50 dBZ
45 dBZ
40 dBZ
35 dBZ
30 dBZ
25 dBZ
20 dBZ
15 dBZ
10 dBZ
5 dBZ
-1 K
-2 K
-3 K
-4 K
-5 K
-6 K
-7 K
-8 K
-9 K
950 m²/s²
900 m²/s²
850 m²/s²
800 m²/s²
750 m²/s²
700 m²/s²
650 m²/s²
600 m²/s²
550 m²/s²
500 m²/s²
450 m²/s²
400 m²/s²
350 m²/s²
300 m²/s²
250 m²/s²
200 m²/s²
150 m²/s²
100 m²/s²
46 m/s
44 m/s
42 m/s
40 m/s
38 m/s
36 m/s
34 m/s
32 m/s
30 m/s
28 m/s
26 m/s
24 m/s
22 m/s
20 m/s
16 m/s
12 m/s
8 m/s
4 m/s
30 m/s
28 m/s
26 m/s
24 m/s
22 m/s
20 m/s
18 m/s
16 m/s
14 m/s
12 m/s
10 m/s
8 m/s
6 m/s
4 m/s
2 m/s
3.0
2.8
2.6
2.4
2.2
2.0
1.8
1.6
1.4
1.2
1.0
0.8
0.6
0.4
0.2
15
14
13
12
11
10
9
8
7
6
5
4
3
2
1
90%
80%
70%
60%
50%
40%
30%
20%
10%
42
40
38
36
34
32
30
28
26
24
22
20
18
16
14
12
90+ cm
80-90 cm
70-80 cm
60-70 cm
50-60 cm
40-50 cm
30-40 cm
20-30 cm
10-20 cm
1-10 cm
Sneeuwval
Natte sneeuw
Regen
>120 mm
115 mm
110 mm
105 mm
100 mm
95 mm
90 mm
85 mm
80 mm
75 mm
70 mm
65 mm
60 mm
55 mm
50 mm
45 mm
45 mm
40 mm
35 mm
30 mm
25 mm
20 mm
15 mm
10 mm
5 mm
0.1 mm
960 hPa
880 hPa
800 hPa
720 hPa
640 hPa
560 hPa
584 gpdm
568 gpdm